Location: Lake Almanor
(40.2485°N, 121.1442°W)
Time: 17:55:59
(UTC-08:00)

STARLINK-1115 - Pass Details

Date: 31 January 2020
Orbit: 349 x 350 km, 53.0° (Epoch: 17 February)

Event Time Altitude Azimuth Distance (km) Brightness Sun altitude
Rises 18:13:57 0° 314° (NW) 2,159 7.1 -10.3°
Reaches altitude 10° 18:16:03 10° 324° (NW) 1,314 5.9 -10.7°
Maximum altitude 18:18:49 37° 34° (NE) 566 3.3 -11.2°
Enters shadow 18:20:25 20° 92° (E) 894 4.1 -11.5°
